Bettles Field, AK

9:08 AM AKST on December 02, 2016 (GMT -0900)
Bettles

Weather History for PABT - March, 2013

Change the Weather History Date:

Tuesday, March 19, 2013

  Actual Average Record
Temperature  
Mean Temperature -2 °F -  
Max Temperature 16 °F 14 °F 39 °F (1998)
Min Temperature -15 °F -8 °F -37 °F (1960)
Degree Days  
Heating Degree Days 66    
Moisture  
Dew Point -11 °F    
Average Humidity 53    
Maximum Humidity 80    
Minimum Humidity 22    
Precipitation  
Precipitation 0.00 in - - ()
Snow  
Snow 0.00 in - - ()
Snow Depth 16.00 in    
Sea Level Pressure  
Sea Level Pressure 30.20 in    
Wind  
Wind Speed 5 mph (North)    
Max Wind Speed 10 mph    
Max Gust Speed -    
Visibility 10 miles    
Events      
Averages and records for this station are not official NWS values.
T = Trace of Precipitation, MM = Missing Value Source: NWS Daily Summary

Daily Weather History Graph

Daily Weather History Graph

Search for Another Location

Airport or City:

Trip Planner

Search our weather history database for the weather conditions in past years. The results will help you decide how hot, cold, wet, or windy it might be!

Date:

Astronomy

Mar. 19, 2013 Rise Set
Actual Time 8:08 AM AKDT 8:21 PM AKDT
Civil Twilight 7:15 AM AKDT 9:14 PM AKDT
Nautical Twilight 6:09 AM AKDT 10:20 PM AKDT
Astronomical Twilight 4:51 AM AKDT 11:40 PM AKDT
Moon 10:22 AM AKDT (3/19) 6:01 AM AKDT (3/19)
Length of Visible Light 13h 59m
Length of Day
12h 12m
Waxing Crescent, 51% of the Moon is Illuminated
Mar 19
Waxing Crescent
Mar 27
Full
Apr 2
Last Quarter
Apr 10
New
Apr 18
First Quarter

Hourly Weather History & Observations

Time (AKDT) Temp. Windchill Dew Point Humidity Pressure Visibility Wind Dir Wind Speed Gust Speed Precip Events Conditions
12:53 AM 4.1 °F -10.2 °F -9.0 °F 55% 30.20 in 10.0 mi NNW 9.2 mph - N/A   Scattered Clouds
1:53 AM 4.1 °F -9.2 °F -9.0 °F 55% 30.21 in 10.0 mi North 8.1 mph - N/A   Scattered Clouds
2:53 AM 1.9 °F -11.8 °F -13.0 °F 50% 30.22 in 10.0 mi North 8.1 mph - N/A   Mostly Cloudy
3:53 AM 1.0 °F -6.7 °F -9.0 °F 63% 30.23 in 10.0 mi North 3.5 mph - N/A   Mostly Cloudy
4:53 AM 1.9 °F -7.6 °F -8.0 °F 63% 30.25 in 10.0 mi NNE 4.6 mph - N/A   Scattered Clouds
5:53 AM -0.0 °F -9.9 °F -8.0 °F 69% 30.25 in 10.0 mi NNW 4.6 mph - N/A   Scattered Clouds
6:53 AM -0.0 °F -13.0 °F -4.9 °F 80% 30.26 in 10.0 mi North 6.9 mph - N/A   Scattered Clouds
7:53 AM -0.0 °F -13.0 °F -9.0 °F 66% 30.27 in 10.0 mi North 6.9 mph - N/A   Mostly Cloudy
8:53 AM -0.0 °F -16.3 °F -8.0 °F 69% 30.27 in 10.0 mi NNE 10.4 mph - N/A   Mostly Cloudy
9:53 AM 1.9 °F -11.8 °F -11.9 °F 52% 30.27 in 10.0 mi NNE 8.1 mph - N/A   Scattered Clouds
10:53 AM 3.0 °F -6.4 °F -11.9 °F 50% 30.26 in 10.0 mi North 4.6 mph - N/A   Scattered Clouds
11:53 AM 6.1 °F -6.8 °F -13.0 °F 41% 30.25 in 10.0 mi NNE 8.1 mph - N/A   Scattered Clouds
12:53 PM 8.1 °F -2.0 °F -11.9 °F 40% 30.24 in 10.0 mi NNE 5.8 mph - N/A   Scattered Clouds
1:53 PM 10.0 °F - -11.0 °F 38% 30.23 in 10.0 mi Calm Calm - N/A   Scattered Clouds
2:53 PM 10.0 °F - -9.9 °F 40% 30.21 in 10.0 mi Calm Calm - N/A   Scattered Clouds
3:53 PM 10.9 °F - -9.9 °F 39% 30.19 in 10.0 mi Calm Calm - N/A   Scattered Clouds
4:53 PM 12.0 °F 5.9 °F -9.9 °F 37% 30.16 in 10.0 mi WNW 3.5 mph - N/A   Scattered Clouds
5:53 PM 12.9 °F 6.9 °F -9.0 °F 37% 30.14 in 10.0 mi Variable 3.5 mph - N/A   Mostly Cloudy
6:53 PM 10.9 °F 1.4 °F -9.9 °F 39% 30.13 in 10.0 mi NNW 5.8 mph - N/A   Mostly Cloudy
7:53 PM 6.1 °F - -9.0 °F 50% 30.12 in 10.0 mi Calm Calm - N/A   Scattered Clouds
8:53 PM -0.9 °F - -11.0 °F 62% 30.12 in 10.0 mi Calm Calm - N/A   Scattered Clouds
9:53 PM -8.0 °F - -14.1 °F 75% 30.11 in 10.0 mi Calm Calm - N/A   Scattered Clouds
10:53 PM -13.0 °F - -18.9 °F 75% 30.09 in 10.0 mi Calm Calm - N/A   Partly Cloudy
11:53 PM -13.0 °F - -20.0 °F 71% 30.08 in 10.0 mi Calm Calm - N/A   Partly Cloudy